sat.trackr.live / text

‹ back to catalog

STARLINK-5399

NORAD 54788 · 2022-175AG

PAYLOAD ACTIVE UNKNOWN

§ Identity

Operator
Country
US
Launch date
2022-12-17
Launch site
AFETR
Launch vehicle
Mass (kg)
RCS (m²)

Purposes: comms

External: N2YO · Heavens-Above · Gunter

§ Orbital elements

Epoch: 2026-09-20T07:00:59.214528Z

Period
93.85 min
Inclination
53.1586°
Eccentricity
0.0001193
Mean motion
15.34398737 rev/d
Perigee alt
461.9 km
Apogee alt
463.5 km
Semi-major
6,840.8 km
B*
-1.3013e-5
RAAN
220.4189°
Arg perigee
81.4020°
Mean anomaly
278.7118°
Rev number
20,971

§ Raw data

STARLINK-53991 54788U 22175AG  26263.29235202 -.00000816  00000+0 -13013-4 0  99912 54788  53.1586 220.4189 0001193  81.4020 278.7118 15.34398737209710

JSON: /api/v1/satellites/54788 · /tle

For live sub-satellite position, see the globe view (requires WebGL).

§ Visibility from observer

Set your observer location to see the next 7 days of passes ≥ 10°. The values pass through the URL so the page stays shareable.

No JS? Fill the form by hand. The geolocation button needs JavaScript.